�������l�o���
Date,Time,MP-1(��Sv/h),MP-2(��Sv/h),MP-3(��Sv/h),MP-4(��Sv/h),MP-5(��Sv/h),MP-6(��Sv/h),MP-7(��Sv/h),MP-8(��Sv/h),����,����(m/s),���J
2021/05/25,00:00,0.617,0.909,0.576,1.101,0.781,0.372,0.642,0.603,��쓌,1.2,��
2021/05/25,00:10,0.618,0.906,0.578,1.101,0.782,0.370,0.642,0.603,��쓌,2.0,��
2021/05/25,00:20,0.616,0.908,0.578,1.103,0.782,0.371,0.643,0.601,�쓌,2.3,��
2021/05/25,00:30,0.616,0.910,0.578,1.103,0.783,0.370,0.642,0.603,�쓌,1.1,��
2021/05/25,00:40,0.617,0.911,0.578,1.102,0.781,0.370,0.642,0.603,��,0.8,��
2021/05/25,00:50,0.618,0.912,0.578,1.101,0.781,0.371,0.642,0.602,�쓌,0.6,��
2021/05/25,01:00,0.617,0.909,0.578,1.102,0.781,0.370,0.642,0.602,��쐼,1.5,��
2021/05/25,01:10,0.616,0.911,0.578,1.100,0.783,0.370,0.641,0.602,��쐼,1.9,��
2021/05/25,01:20,0.616,0.910,0.577,1.101,0.781,0.370,0.642,0.602,��쐼,2.9,��
2021/05/25,01:30,0.616,0.907,0.577,1.104,0.782,0.370,0.643,0.602,��쐼,1.9,��
2021/05/25,01:40,0.617,0.909,0.576,1.104,0.783,0.371,0.642,0.602,��,1.5,��
2021/05/25,01:50,0.616,0.909,0.578,1.101,0.782,0.370,0.641,0.602,��,2.0,��
2021/05/25,02:00,0.615,0.909,0.578,1.103,0.781,0.372,0.641,0.601,��쐼,1.7,��
2021/05/25,02:10,0.617,0.911,0.577,1.103,0.781,0.370,0.642,0.601,��쐼,1.7,��
2021/05/25,02:20,0.616,0.910,0.578,1.104,0.782,0.372,0.641,0.603,�쐼,1.2,��
2021/05/25,02:30,0.618,0.910,0.577,1.103,0.783,0.372,0.640,0.603,��쐼,0.6,��
2021/05/25,02:40,0.616,0.911,0.580,1.102,0.781,0.373,0.642,0.602,���쐼,1.5,��
2021/05/25,02:50,0.619,0.910,0.580,1.102,0.783,0.371,0.642,0.601,��쐼,1.2,��
2021/05/25,03:00,0.617,0.910,0.580,1.102,0.782,0.372,0.643,0.603,��쐼,1.9,��
2021/05/25,03:10,0.619,0.909,0.580,1.103,0.785,0.372,0.642,0.602,��쐼,1.7,��
2021/05/25,03:20,0.617,0.908,0.580,1.102,0.783,0.373,0.642,0.603,��쐼,0.8,��
2021/05/25,03:30,0.618,0.910,0.578,1.102,0.782,0.374,0.643,0.601,��,0.8,��
2021/05/25,03:40,0.617,0.911,0.579,1.103,0.785,0.373,0.641,0.603,-,CALM,��
2021/05/25,03:50,0.616,0.909,0.578,1.103,0.782,0.372,0.642,0.603,���k��,0.6,��
2021/05/25,04:00,0.616,0.909,0.579,1.102,0.783,0.371,0.642,0.603,�k�k��,1.7,��
2021/05/25,04:10,0.618,0.911,0.577,1.102,0.781,0.372,0.641,0.602,�k,2.0,��
2021/05/25,04:20,0.616,0.908,0.579,1.101,0.782,0.370,0.641,0.602,�k�k��,2.9,��
2021/05/25,04:30,0.616,0.908,0.577,1.100,0.782,0.370,0.640,0.601,�k,2.9,��
2021/05/25,04:40,0.616,0.909,0.577,1.103,0.783,0.371,0.642,0.603,�k�k��,2.9,��
2021/05/25,04:50,0.616,0.908,0.579,1.102,0.782,0.371,0.641,0.601,�k�k��,3.4,��
2021/05/25,05:00,0.616,0.909,0.578,1.102,0.781,0.372,0.642,0.602,�k�k��,3.1,��
2021/05/25,05:10,0.616,0.907,0.577,1.101,0.784,0.371,0.642,0.604,�k�k��,3.2,��
2021/05/25,05:20,0.615,0.909,0.578,1.102,0.783,0.370,0.642,0.604,�k�k��,3.3,��
2021/05/25,05:30,0.616,0.908,0.579,1.102,0.781,0.371,0.641,0.603,�k�k��,2.8,��
2021/05/25,05:40,0.616,0.909,0.578,1.102,0.784,0.372,0.641,0.602,�k,3.0,��
2021/05/25,05:50,0.617,0.907,0.579,1.100,0.781,0.372,0.640,0.602,�k�k��,2.9,��
2021/05/25,06:00,0.616,0.908,0.578,1.101,0.781,0.371,0.641,0.603,�k�k��,4.0,��
2021/05/25,06:10,0.615,0.908,0.577,1.104,0.784,0.372,0.641,0.603,�k��,4.8,��
2021/05/25,06:20,0.617,0.910,0.578,1.103,0.783,0.371,0.641,0.602,�k��,5.5,��
2021/05/25,06:30,0.618,0.909,0.581,1.102,0.781,0.371,0.640,0.602,���k��,5.1,��
2021/05/25,06:40,0.617,0.909,0.577,1.104,0.782,0.371,0.640,0.602,�k��,4.8,��
2021/05/25,06:50,0.617,0.907,0.578,1.103,0.784,0.372,0.640,0.602,�k��,5.1,��
2021/05/25,07:00,0.617,0.907,0.578,1.103,0.781,0.370,0.641,0.602,�k��,4.2,��
2021/05/25,07:10,0.616,0.908,0.578,1.103,0.784,0.370,0.640,0.603,�k��,4.4,��
2021/05/25,07:20,0.617,0.907,0.578,1.103,0.781,0.370,0.641,0.602,���k��,5.4,��
2021/05/25,07:30,0.616,0.905,0.579,1.106,0.782,0.370,0.642,0.600,���k��,5.7,��
2021/05/25,07:40,0.617,0.907,0.579,1.105,0.780,0.370,0.642,0.602,�k��,4.1,��
2021/05/25,07:50,0.615,0.904,0.577,1.104,0.782,0.370,0.641,0.600,�k�k��,2.8,��
2021/05/25,08:00,0.617,0.906,0.578,1.104,0.782,0.371,0.642,0.600,�k��,5.8,��
2021/05/25,08:10,0.617,0.906,0.580,1.103,0.783,0.370,0.643,0.601,�k��,4.3,��
2021/05/25,08:20,0.618,0.906,0.579,1.105,0.784,0.370,0.642,0.601,�k��,7.4,��
2021/05/25,08:30,0.618,0.907,0.578,1.105,0.783,0.371,0.643,0.600,���k��,8.0,��
2021/05/25,08:40,0.617,0.906,0.579,1.103,0.781,0.371,0.643,0.600,���k��,8.4,��
2021/05/25,08:50,0.618,0.907,0.576,1.105,0.781,0.370,0.643,0.601,���k��,7.4,��
2021/05/25,09:00,0.619,0.907,0.577,1.104,0.782,0.370,0.642,0.601,���k��,5.7,��
2021/05/25,09:10,0.618,0.906,0.578,1.104,0.783,0.370,0.643,0.600,���k��,7.0,��
2021/05/25,09:20,0.619,0.907,0.577,1.105,0.782,0.373,0.642,0.601,�k��,4.4,��
2021/05/25,09:30,0.618,0.907,0.576,1.104,0.782,0.369,0.644,0.600,�k�k��,3.1,��
2021/05/25,09:40,0.618,0.906,0.580,1.107,0.785,0.371,0.642,0.600,�k��,4.4,��
2021/05/25,09:50,0.616,0.909,0.576,1.105,0.784,0.370,0.643,0.601,�k��,3.7,��
2021/05/25,10:00,0.619,0.908,0.577,1.105,0.786,0.371,0.642,0.600,���k��,4.3,��
2021/05/25,10:10,0.615,0.908,0.578,1.107,0.785,0.371,0.643,0.602,���k��,3.9,��
2021/05/25,10:20,0.616,0.911,0.578,1.108,0.784,0.370,0.643,0.601,��,4.3,��
2021/05/25,10:30,0.618,0.909,0.578,1.107,0.785,0.371,0.643,0.600,���k��,5.0,��
2021/05/25,10:40,0.616,0.910,0.579,1.108,0.785,0.370,0.643,0.600,�k��,4.2,��
2021/05/25,10:50,0.619,0.911,0.579,1.107,0.784,0.370,0.642,0.601,��,4.0,��
2021/05/25,11:00,0.620,0.911,0.579,1.106,0.784,0.371,0.643,0.602,���쓌,2.3,��
2021/05/25,11:10,0.619,0.911,0.578,1.104,0.786,0.370,0.643,0.600,�쓌,2.6,��
2021/05/25,11:20,0.619,0.909,0.579,1.104,0.786,0.373,0.643,0.601,���쓌,2.0,��
2021/05/25,11:30,0.618,0.910,0.579,1.105,0.786,0.372,0.642,0.602,��쓌,0.9,��
2021/05/25,11:40,0.620,0.910,0.579,1.103,0.785,0.372,0.642,0.602,�k��,2.0,��
2021/05/25,11:50,0.618,0.913,0.578,1.104,0.784,0.372,0.641,0.599,���쓌,2.5,��
2021/05/25,12:00,0.619,0.912,0.579,1.103,0.786,0.372,0.644,0.602,�쓌,3.0,��
2021/05/25,12:10,0.618,0.912,0.580,1.107,0.786,0.372,0.643,0.601,���쓌,2.6,��
2021/05/25,12:20,0.618,0.914,0.579,1.105,0.787,0.374,0.643,0.600,���쓌,2.3,��
2021/05/25,12:30,0.620,0.914,0.579,1.108,0.786,0.372,0.642,0.600,��,3.1,��
2021/05/25,12:40,0.618,0.914,0.579,1.107,0.785,0.372,0.644,0.601,���쓌,2.8,��
2021/05/25,12:50,0.620,0.916,0.581,1.107,0.788,0.372,0.644,0.601,���쓌,3.7,��
2021/05/25,13:00,0.620,0.914,0.580,1.105,0.788,0.373,0.644,0.599,�쓌,3.7,��
2021/05/25,13:10,0.620,0.915,0.580,1.108,0.788,0.371,0.643,0.601,�쓌,3.1,��
2021/05/25,13:20,0.621,0.913,0.580,1.106,0.787,0.372,0.641,0.602,���쓌,3.5,��
2021/05/25,13:30,0.621,0.914,0.581,1.106,0.787,0.371,0.644,0.602,���쓌,3.2,��
2021/05/25,13:40,0.621,0.916,0.580,1.107,0.787,0.372,0.644,0.603,���쓌,3.7,��
2021/05/25,13:50,0.620,0.915,0.579,1.106,0.788,0.372,0.645,0.602,�쓌,2.9,��
2021/05/25,14:00,0.618,0.914,0.581,1.106,0.789,0.372,0.642,0.602,�쓌,3.5,��
2021/05/25,14:10,0.623,0.915,0.580,1.107,0.790,0.372,0.643,0.602,�쓌,3.9,��
2021/05/25,14:20,0.622,0.915,0.580,1.105,0.788,0.372,0.643,0.602,�쓌,3.8,��
2021/05/25,14:30,0.621,0.915,0.579,1.107,0.788,0.373,0.645,0.602,�쓌,4.8,��
2021/05/25,14:40,0.623,0.918,0.579,1.106,0.790,0.371,0.643,0.603,�쓌,4.3,��
2021/05/25,14:50,0.620,0.914,0.580,1.108,0.788,0.372,0.645,0.600,�쓌,3.9,��
2021/05/25,15:00,0.622,0.918,0.581,1.109,0.790,0.373,0.644,0.601,�쓌,4.9,��
2021/05/25,15:10,0.624,0.915,0.580,1.110,0.790,0.371,0.643,0.601,��쓌,4.2,��
2021/05/25,15:20,0.621,0.918,0.581,1.107,0.790,0.372,0.642,0.600,��쓌,4.9,��
2021/05/25,15:30,0.621,0.918,0.579,1.110,0.789,0.370,0.643,0.602,��쓌,4.2,��
2021/05/25,15:40,0.621,0.917,0.581,1.108,0.790,0.370,0.644,0.602,��,5.1,��
2021/05/25,15:50,0.620,0.919,0.582,1.106,0.790,0.373,0.644,0.601,��쓌,3.6,��
2021/05/25,16:00,0.621,0.919,0.581,1.107,0.789,0.372,0.643,0.602,��쓌,4.7,��
2021/05/25,16:10,0.619,0.919,0.580,1.109,0.790,0.373,0.645,0.602,��쓌,5.4,��
2021/05/25,16:20,0.621,0.920,0.580,1.109,0.790,0.372,0.644,0.600,��쓌,7.4,��
2021/05/25,16:30,0.621,0.918,0.582,1.107,0.789,0.371,0.645,0.601,��쓌,5.8,��
2021/05/25,16:40,0.621,0.920,0.580,1.111,0.789,0.371,0.642,0.602,��쓌,6.1,��
2021/05/25,16:50,0.621,0.918,0.581,1.109,0.790,0.372,0.642,0.604,��쓌,5.6,��
2021/05/25,17:00,0.620,0.918,0.580,1.110,0.790,0.371,0.642,0.601,��,6.2,��
2021/05/25,17:10,0.620,0.917,0.581,1.112,0.790,0.373,0.643,0.601,��,6.9,�L
2021/05/25,17:20,0.621,0.919,0.581,1.111,0.791,0.371,0.644,0.601,��,5.7,�L
2021/05/25,17:30,0.622,0.919,0.581,1.111,0.791,0.372,0.643,0.603,��,6.9,�L
2021/05/25,17:40,0.622,0.919,0.580,1.117,0.790,0.373,0.643,0.603,��,7.9,�L
2021/05/25,17:50,0.621,0.920,0.581,1.114,0.792,0.374,0.645,0.602,��,7.1,�L
2021/05/25,18:00,0.621,0.920,0.584,1.112,0.791,0.375,0.643,0.604,��,8.4,�L
2021/05/25,18:10,0.621,0.918,0.584,1.117,0.791,0.374,0.642,0.602,��,9.2,�L
2021/05/25,18:20,0.622,0.920,0.584,1.116,0.791,0.374,0.645,0.602,��,7.8,�L
2021/05/25,18:30,0.622,0.918,0.584,1.116,0.790,0.375,0.644,0.601,��쐼,7.2,�L
2021/05/25,18:40,0.623,0.921,0.582,1.113,0.791,0.375,0.643,0.604,��쐼,7.1,�L
2021/05/25,18:50,0.624,0.919,0.585,1.115,0.790,0.375,0.644,0.603,��쐼,6.4,�L
2021/05/25,19:00,0.621,0.916,0.584,1.114,0.788,0.376,0.644,0.604,��쐼,6.6,�L
2021/05/25,19:10,0.622,0.916,0.585,1.114,0.787,0.375,0.644,0.603,��쐼,6.1,�L
2021/05/25,19:20,0.621,0.914,0.582,1.114,0.788,0.375,0.644,0.604,��쐼,7.6,�L
2021/05/25,19:30,0.620,0.915,0.581,1.113,0.786,0.375,0.641,0.603,��쐼,7.3,�L
2021/05/25,19:40,0.623,0.915,0.582,1.111,0.785,0.376,0.641,0.601,��쐼,5.4,�L
2021/05/25,19:50,0.620,0.914,0.583,1.111,0.783,0.375,0.643,0.601,��쐼,5.0,�L
2021/05/25,20:00,0.620,0.913,0.582,1.111,0.782,0.374,0.639,0.600,��쐼,4.8,��
2021/05/25,20:10,0.617,0.911,0.580,1.107,0.781,0.372,0.641,0.598,��쐼,5.7,�L
2021/05/25,20:20,0.620,0.911,0.581,1.109,0.782,0.374,0.639,0.599,��쐼,5.7,�L
2021/05/25,20:30,0.618,0.910,0.580,1.107,0.781,0.375,0.640,0.601,��쐼,6.0,�L
2021/05/25,20:40,0.619,0.908,0.581,1.104,0.780,0.373,0.639,0.600,��,6.2,�L
2021/05/25,20:50,0.619,0.905,0.582,1.103,0.780,0.375,0.639,0.599,��,5.7,�L
2021/05/25,21:00,0.616,0.904,0.579,1.106,0.778,0.374,0.639,0.599,��,5.3,��
2021/05/25,21:10,0.615,0.905,0.578,1.103,0.779,0.374,0.637,0.599,��쐼,3.8,��
2021/05/25,21:20,0.615,0.904,0.578,1.101,0.777,0.372,0.640,0.600,��쐼,4.4,�L
2021/05/25,21:30,0.614,0.899,0.577,1.098,0.772,0.374,0.638,0.598,�쐼,5.1,�L
2021/05/25,21:40,0.608,0.891,0.573,1.087,0.766,0.371,0.635,0.597,���쐼,4.3,�L
2021/05/25,21:50,0.610,0.893,0.576,1.090,0.769,0.372,0.636,0.598,���쐼,3.6,�L
2021/05/25,22:00,0.611,0.895,0.577,1.091,0.769,0.373,0.634,0.595,��,3.7,�L
2021/05/25,22:10,0.611,0.891,0.575,1.091,0.769,0.374,0.633,0.595,��,5.9,�L
2021/05/25,22:20,0.610,0.892,0.576,1.090,0.769,0.374,0.634,0.596,��,4.4,�L
2021/05/25,22:30,0.610,0.891,0.577,1.091,0.770,0.374,0.634,0.594,��,3.8,�L
2021/05/25,22:40,0.609,0.891,0.575,1.084,0.769,0.374,0.631,0.593,���k��,4.1,�L
2021/05/25,22:50,0.610,0.891,0.576,1.086,0.768,0.373,0.633,0.595,�k��,2.6,�L
2021/05/25,23:00,0.607,0.891,0.575,1.085,0.766,0.373,0.631,0.594,�k��,2.3,�L
2021/05/25,23:10,0.610,0.892,0.573,1.084,0.766,0.372,0.632,0.595,���k��,2.6,�L
2021/05/25,23:20,0.610,0.891,0.575,1.082,0.765,0.372,0.632,0.593,���k��,3.4,�L
2021/05/25,23:30,0.609,0.889,0.574,1.083,0.768,0.373,0.633,0.596,���k��,5.4,�L
2021/05/25,23:40,0.611,0.891,0.573,1.081,0.766,0.373,0.633,0.595,�k��,3.8,�L
2021/05/25,23:50,0.609,0.890,0.573,1.081,0.766,0.372,0.633,0.596,�k,2.0,��
